Year,Month,Day,Hour,Minute,Value (Times are PST for temperature in C)
2011,10,24,00,00,5.10
2011,10,24,00,01,5.10
2011,10,24,00,02,5.10
2011,10,24,00,03,5.10
2011,10,24,00,04,5.20
2011,10,24,00,05,5.20
2011,10,24,00,06,5.20
2011,10,24,00,07,5.30
2011,10,24,00,08,5.30
2011,10,24,00,09,5.40
2011,10,24,00,10,5.40
2011,10,24,00,11,5.50
2011,10,24,00,12,5.60
2011,10,24,00,18,6.00
2011,10,24,00,19,6.10
2011,10,24,00,20,6.20
2011,10,24,00,21,6.20
2011,10,24,00,22,6.20
2011,10,24,00,23,6.20
2011,10,24,00,24,6.30
2011,10,24,00,25,6.30
2011,10,24,00,26,6.30
2011,10,24,00,27,6.40
2011,10,24,00,28,6.40
2011,10,24,00,29,6.40
2011,10,24,00,30,6.50
2011,10,24,00,31,6.60
2011,10,24,00,32,6.60
2011,10,24,00,33,6.70
2011,10,24,00,34,6.70
2011,10,24,00,35,6.80
2011,10,24,00,36,6.80
2011,10,24,00,37,6.80
2011,10,24,00,38,6.80
2011,10,24,00,39,6.90
2011,10,24,00,40,6.90
2011,10,24,00,41,6.90
2011,10,24,00,42,6.90
2011,10,24,00,43,6.90
2011,10,24,00,44,6.90
2011,10,24,00,45,6.80
2011,10,24,00,46,6.80
2011,10,24,00,47,6.80
2011,10,24,00,48,6.70
2011,10,24,00,49,6.70
2011,10,24,00,50,6.70
2011,10,24,00,51,6.70
2011,10,24,00,52,6.80
2011,10,24,00,53,6.80
2011,10,24,00,54,6.80
2011,10,24,00,55,6.80
2011,10,24,00,56,6.90
2011,10,24,00,57,6.90
2011,10,24,00,58,6.90
2011,10,24,00,59,7.00
2011,10,24,01,00,7.00
2011,10,24,01,01,7.10
2011,10,24,01,02,7.10
2011,10,24,01,03,7.10
2011,10,24,01,04,7.10
2011,10,24,01,05,7.10
2011,10,24,01,06,7.10
2011,10,24,01,07,7.00
2011,10,24,01,08,7.00
2011,10,24,01,09,7.00
2011,10,24,01,10,6.90
2011,10,24,01,11,6.90
2011,10,24,01,12,6.90
2011,10,24,01,13,6.80
2011,10,24,01,14,6.80
2011,10,24,01,15,6.80
2011,10,24,01,16,6.80
2011,10,24,01,17,6.80
2011,10,24,01,18,6.70
2011,10,24,01,19,6.70
2011,10,24,01,20,6.70
2011,10,24,01,21,6.80
2011,10,24,01,22,6.80
2011,10,24,01,23,6.80
2011,10,24,01,24,6.80
2011,10,24,01,25,6.80
2011,10,24,01,26,6.80
2011,10,24,01,27,6.80
2011,10,24,01,28,6.80
2011,10,24,01,29,6.80
2011,10,24,01,30,6.80
2011,10,24,01,31,6.80
2011,10,24,01,32,6.70
2011,10,24,01,33,6.70
2011,10,24,01,34,6.70
2011,10,24,01,35,6.70
2011,10,24,01,36,6.70
2011,10,24,01,37,6.70
2011,10,24,01,38,6.70
2011,10,24,01,39,6.60
2011,10,24,01,40,6.60
2011,10,24,01,41,6.60
2011,10,24,01,42,6.60
2011,10,24,01,43,6.60
2011,10,24,01,44,6.60
2011,10,24,01,45,6.50
2011,10,24,01,46,6.60
2011,10,24,01,47,6.50
2011,10,24,01,48,6.50
2011,10,24,01,49,6.50
2011,10,24,01,50,6.50
2011,10,24,01,51,6.50
2011,10,24,01,52,6.60
2011,10,24,01,53,6.60
2011,10,24,01,54,6.60
2011,10,24,01,55,6.60
2011,10,24,01,56,6.60
2011,10,24,01,57,6.60
2011,10,24,01,58,6.60
2011,10,24,01,59,6.60
2011,10,24,02,00,6.60
2011,10,24,02,01,6.60
2011,10,24,02,02,6.50
2011,10,24,02,03,6.50
2011,10,24,02,04,6.40
2011,10,24,02,05,6.40
2011,10,24,02,06,6.40
2011,10,24,02,07,6.30
2011,10,24,02,08,6.30
2011,10,24,02,09,6.20
2011,10,24,02,10,6.20
2011,10,24,02,11,6.10
2011,10,24,02,12,6.00
2011,10,24,02,13,5.90
2011,10,24,02,14,5.80
2011,10,24,02,15,5.80
2011,10,24,02,16,5.70
2011,10,24,02,17,5.60
2011,10,24,02,18,5.50
2011,10,24,02,19,5.50
2011,10,24,02,20,5.40
2011,10,24,02,21,5.30
2011,10,24,02,22,5.20
2011,10,24,02,23,5.10
2011,10,24,02,24,5.10
2011,10,24,02,25,5.10
2011,10,24,02,26,5.00
2011,10,24,02,27,5.00
2011,10,24,02,28,4.90
2011,10,24,02,29,4.80
2011,10,24,02,30,4.80
2011,10,24,02,31,4.70
2011,10,24,02,32,4.70
2011,10,24,02,33,4.70
2011,10,24,02,34,4.60
2011,10,24,02,35,4.60
2011,10,24,02,36,4.50
2011,10,24,02,37,4.40
2011,10,24,02,38,4.40
2011,10,24,02,39,4.30
2011,10,24,02,40,4.30
2011,10,24,02,41,4.20
2011,10,24,02,42,4.20
2011,10,24,02,43,4.20
2011,10,24,02,44,4.10
2011,10,24,02,45,4.10
2011,10,24,02,46,4.10
2011,10,24,02,47,4.10
2011,10,24,02,48,4.00
2011,10,24,02,49,4.00
2011,10,24,02,50,4.00
2011,10,24,02,51,3.90
2011,10,24,02,52,3.90
2011,10,24,02,53,3.90
2011,10,24,02,54,3.90
2011,10,24,02,55,3.80
2011,10,24,02,56,3.80
2011,10,24,02,57,3.80
2011,10,24,02,58,3.80
2011,10,24,02,59,3.70
2011,10,24,03,00,3.70
2011,10,24,03,01,3.70
2011,10,24,03,02,3.70
2011,10,24,03,03,3.60
2011,10,24,03,04,3.60
2011,10,24,03,05,3.60
2011,10,24,03,06,3.60
2011,10,24,03,07,3.50
2011,10,24,03,08,3.50
2011,10,24,03,09,3.50
2011,10,24,03,10,3.50
2011,10,24,03,11,3.40
2011,10,24,03,12,3.40
2011,10,24,03,13,3.40
2011,10,24,03,14,3.40
2011,10,24,03,15,3.40
2011,10,24,03,16,3.40
2011,10,24,03,17,3.30
2011,10,24,03,18,3.30
2011,10,24,03,19,3.30
2011,10,24,03,20,3.30
2011,10,24,03,21,3.30
2011,10,24,03,22,3.20
2011,10,24,03,23,3.20
2011,10,24,03,24,3.20
2011,10,24,03,25,3.20
2011,10,24,03,26,3.10
2011,10,24,03,27,3.10
2011,10,24,03,28,3.10
2011,10,24,03,29,3.10
2011,10,24,03,30,3.00
2011,10,24,03,31,3.00
2011,10,24,03,32,3.00
2011,10,24,03,33,3.00
2011,10,24,03,34,3.00
2011,10,24,03,35,3.10
2011,10,24,03,36,3.10
2011,10,24,03,37,3.10
2011,10,24,03,38,3.10
2011,10,24,03,39,3.10
2011,10,24,03,40,3.10
2011,10,24,03,41,3.10
2011,10,24,03,42,3.10
2011,10,24,03,43,3.10
2011,10,24,03,44,3.10
2011,10,24,03,45,3.10
2011,10,24,03,46,3.10
2011,10,24,03,47,3.20
2011,10,24,03,48,3.20
2011,10,24,03,49,3.20
2011,10,24,03,50,3.20
2011,10,24,03,51,3.20
2011,10,24,03,52,3.20
2011,10,24,03,53,3.20
2011,10,24,03,54,3.20
2011,10,24,03,55,3.20
2011,10,24,03,56,3.20
2011,10,24,03,57,3.30
2011,10,24,03,58,3.30
2011,10,24,03,59,3.30
2011,10,24,04,00,3.30
2011,10,24,04,01,3.40
2011,10,24,04,02,3.40
2011,10,24,04,03,3.40
2011,10,24,04,04,3.50
2011,10,24,04,05,3.60
2011,10,24,04,06,3.70
2011,10,24,04,07,3.70
2011,10,24,04,08,3.80
2011,10,24,04,09,3.80
2011,10,24,04,10,3.90
2011,10,24,04,11,4.00
2011,10,24,04,12,4.10
2011,10,24,04,13,4.10
2011,10,24,04,14,4.10
2011,10,24,04,15,4.20
2011,10,24,04,16,4.20
2011,10,24,04,17,4.20
2011,10,24,04,18,4.30
2011,10,24,04,19,4.30
2011,10,24,04,20,4.40
2011,10,24,04,21,4.40
2011,10,24,04,22,4.40
2011,10,24,04,23,4.40
2011,10,24,04,24,4.50
2011,10,24,04,25,4.50
2011,10,24,04,26,4.60
2011,10,24,04,27,4.60
2011,10,24,04,28,4.70
2011,10,24,04,29,4.80
2011,10,24,04,30,4.80
2011,10,24,04,31,4.80
2011,10,24,04,32,4.80
2011,10,24,04,33,4.80
2011,10,24,04,34,4.80
2011,10,24,04,35,4.80
2011,10,24,04,36,4.80
2011,10,24,04,37,4.80
2011,10,24,04,38,4.80
2011,10,24,04,39,4.80
2011,10,24,04,40,4.80
2011,10,24,04,41,4.80
2011,10,24,04,42,4.80
2011,10,24,04,43,4.80
2011,10,24,04,44,4.80
2011,10,24,04,45,4.80
2011,10,24,04,46,4.80
2011,10,24,04,47,4.70
2011,10,24,04,48,4.70
2011,10,24,04,49,4.70
2011,10,24,04,50,4.70
2011,10,24,04,51,4.70
2011,10,24,04,52,4.70
2011,10,24,04,53,4.70
2011,10,24,04,54,4.70
2011,10,24,04,55,4.70
2011,10,24,04,56,4.70
2011,10,24,04,57,4.60
2011,10,24,04,58,4.60
2011,10,24,04,59,4.60
2011,10,24,05,00,4.60
2011,10,24,05,01,4.60
2011,10,24,05,02,4.60
2011,10,24,05,03,4.60
2011,10,24,05,04,4.60
2011,10,24,05,05,4.60
2011,10,24,05,06,4.70
2011,10,24,05,07,4.70
2011,10,24,05,08,4.80
2011,10,24,05,09,4.80
2011,10,24,05,10,4.80
2011,10,24,05,11,4.90
2011,10,24,05,12,4.90
2011,10,24,05,13,4.90
2011,10,24,05,14,4.90
2011,10,24,05,15,4.90
2011,10,24,05,16,4.90
2011,10,24,05,17,4.90
2011,10,24,05,18,4.90
2011,10,24,05,19,4.90
2011,10,24,05,20,4.90
2011,10,24,05,21,4.90
2011,10,24,05,22,4.90
2011,10,24,05,23,4.90
2011,10,24,05,24,4.90
2011,10,24,05,25,4.80
2011,10,24,05,26,4.90
2011,10,24,05,27,4.90
2011,10,24,05,28,4.90
2011,10,24,05,29,4.90
2011,10,24,05,30,4.90
2011,10,24,05,31,4.90
2011,10,24,05,32,4.90
2011,10,24,05,33,4.90
2011,10,24,05,34,4.90
2011,10,24,05,35,4.90
2011,10,24,05,36,4.90
2011,10,24,05,37,4.80
2011,10,24,05,38,4.80
2011,10,24,05,39,4.80
2011,10,24,05,40,4.80
2011,10,24,05,41,4.70
2011,10,24,05,42,4.70
2011,10,24,05,43,4.70
2011,10,24,05,44,4.70
2011,10,24,05,45,4.70
2011,10,24,05,46,4.70
2011,10,24,05,47,4.70
2011,10,24,05,48,4.70
2011,10,24,05,49,4.70
2011,10,24,05,50,4.70
2011,10,24,05,51,4.70
2011,10,24,05,52,4.70
2011,10,24,05,53,4.70
2011,10,24,05,54,4.70
2011,10,24,05,55,4.70
2011,10,24,05,56,4.70
2011,10,24,05,57,4.70
2011,10,24,05,58,4.70
2011,10,24,05,59,4.70
2011,10,24,06,00,4.60
2011,10,24,06,01,4.60
2011,10,24,06,02,4.60
2011,10,24,06,03,4.50
2011,10,24,06,04,4.50
2011,10,24,06,05,4.50
2011,10,24,06,06,4.60
2011,10,24,06,07,4.60
2011,10,24,06,08,4.60
2011,10,24,06,09,4.60
2011,10,24,06,10,4.70
2011,10,24,06,11,4.70
2011,10,24,06,12,4.80
2011,10,24,06,13,4.80
2011,10,24,06,14,4.80
2011,10,24,06,15,4.90
2011,10,24,06,16,5.00
2011,10,24,06,17,5.00
2011,10,24,06,18,5.10
2011,10,24,06,19,5.10
2011,10,24,06,20,5.10
2011,10,24,06,21,5.10
2011,10,24,06,22,5.10
2011,10,24,06,23,5.10
2011,10,24,06,24,5.10
2011,10,24,06,25,5.10
2011,10,24,06,26,5.00
2011,10,24,06,27,5.00
2011,10,24,06,28,5.00
2011,10,24,06,29,4.90
2011,10,24,06,30,4.90
2011,10,24,06,31,4.90
2011,10,24,06,32,4.90
2011,10,24,06,33,4.80
2011,10,24,06,34,4.80
2011,10,24,06,35,4.80
2011,10,24,06,36,4.80
2011,10,24,06,37,4.70
2011,10,24,06,38,4.70
2011,10,24,06,39,4.70
2011,10,24,06,40,4.70
2011,10,24,06,41,4.70
2011,10,24,06,42,4.70
2011,10,24,06,43,4.70
2011,10,24,06,44,4.70
2011,10,24,06,45,4.60
2011,10,24,06,46,4.60
2011,10,24,06,47,4.60
2011,10,24,06,48,4.60
2011,10,24,06,49,4.60
2011,10,24,06,50,4.50
2011,10,24,06,51,4.50
2011,10,24,06,52,4.40
2011,10,24,06,53,4.40
2011,10,24,06,54,4.40
2011,10,24,06,55,4.30
2011,10,24,06,56,4.30
2011,10,24,06,57,4.20
2011,10,24,06,58,4.20
2011,10,24,06,59,4.10
2011,10,24,07,00,4.10
2011,10,24,07,01,4.10
2011,10,24,07,02,4.00
2011,10,24,07,03,4.00
2011,10,24,07,04,4.00
2011,10,24,07,05,3.90
2011,10,24,07,06,3.90
2011,10,24,07,07,3.90
2011,10,24,07,08,3.90
2011,10,24,07,09,3.90
2011,10,24,07,10,3.80
2011,10,24,07,11,3.80
2011,10,24,07,12,3.80
2011,10,24,07,13,3.70
2011,10,24,07,14,3.70
2011,10,24,07,15,3.70
2011,10,24,07,16,3.70
2011,10,24,07,17,3.60
2011,10,24,07,18,3.60
2011,10,24,07,19,3.60
2011,10,24,07,20,3.50
2011,10,24,07,21,3.50
2011,10,24,07,22,3.50
2011,10,24,07,23,3.50
2011,10,24,07,24,3.50
2011,10,24,07,25,3.50
2011,10,24,07,26,3.50
2011,10,24,07,27,3.50
2011,10,24,07,28,3.50
2011,10,24,07,29,3.40
2011,10,24,07,30,3.50
2011,10,24,07,31,3.50
2011,10,24,07,32,3.50
2011,10,24,07,33,3.50
2011,10,24,07,34,3.40
2011,10,24,07,35,3.40
2011,10,24,07,36,3.40
2011,10,24,07,37,3.40
2011,10,24,07,38,3.40
2011,10,24,07,39,3.40
2011,10,24,07,40,3.40
2011,10,24,07,41,3.30
2011,10,24,07,42,3.30
2011,10,24,07,43,3.30
2011,10,24,07,44,3.30
2011,10,24,07,45,3.30
2011,10,24,07,46,3.30
2011,10,24,07,47,3.30
2011,10,24,07,48,3.30
2011,10,24,07,49,3.20
2011,10,24,07,50,3.20
2011,10,24,07,51,3.20
2011,10,24,07,52,3.20
2011,10,24,07,53,3.20
2011,10,24,07,54,3.20
2011,10,24,07,55,3.20
2011,10,24,07,56,3.10
2011,10,24,07,57,3.10
2011,10,24,07,58,3.10
2011,10,24,07,59,3.10
2011,10,24,08,00,3.10
2011,10,24,08,01,3.00
2011,10,24,08,02,3.00
2011,10,24,08,03,3.00
2011,10,24,08,04,3.00
2011,10,24,08,05,3.00
2011,10,24,08,06,3.00
2011,10,24,08,07,3.00
2011,10,24,08,08,3.00
2011,10,24,08,09,3.00
2011,10,24,08,10,3.00
2011,10,24,08,11,3.00
2011,10,24,08,12,3.10
2011,10,24,08,13,3.10
2011,10,24,08,14,3.10
2011,10,24,08,15,3.10
2011,10,24,08,16,3.10
2011,10,24,08,17,3.10
2011,10,24,08,18,3.10
2011,10,24,08,19,3.10
2011,10,24,08,20,3.10
2011,10,24,08,21,3.10
2011,10,24,08,22,3.20
2011,10,24,08,23,3.20
2011,10,24,08,24,3.20
2011,10,24,08,25,3.20
2011,10,24,08,26,3.20
2011,10,24,08,27,3.20
2011,10,24,08,28,3.20
2011,10,24,08,29,3.30
2011,10,24,08,30,3.30
2011,10,24,08,31,3.30
2011,10,24,08,32,3.30
2011,10,24,08,33,3.40
2011,10,24,08,34,3.50
2011,10,24,08,35,3.60
2011,10,24,08,36,3.60
2011,10,24,08,37,3.70
2011,10,24,08,38,3.70
2011,10,24,08,39,3.70
2011,10,24,08,40,3.70
2011,10,24,08,41,3.80
2011,10,24,08,42,3.80
2011,10,24,08,43,3.80
2011,10,24,08,44,3.90
2011,10,24,08,45,3.90
2011,10,24,08,46,3.90
2011,10,24,08,47,4.00
2011,10,24,08,48,4.00
2011,10,24,08,49,4.10
2011,10,24,08,50,4.10
2011,10,24,08,51,4.20
2011,10,24,08,52,4.20
2011,10,24,08,53,4.20
2011,10,24,08,54,4.30
2011,10,24,08,55,4.30
2011,10,24,08,56,4.40
2011,10,24,08,57,4.40
2011,10,24,08,58,4.50
2011,10,24,08,59,4.50
2011,10,24,09,00,4.60
2011,10,24,09,01,4.70
2011,10,24,09,02,4.70
2011,10,24,09,03,4.80
2011,10,24,09,04,4.80
2011,10,24,09,05,4.90
2011,10,24,09,06,5.00
2011,10,24,09,07,5.10
2011,10,24,09,08,5.10
2011,10,24,09,09,5.20
2011,10,24,09,10,5.30
2011,10,24,09,11,5.30
2011,10,24,09,12,5.30
2011,10,24,09,13,5.40
2011,10,24,09,14,5.50
2011,10,24,09,15,5.60
2011,10,24,09,16,5.70
2011,10,24,09,17,5.80
2011,10,24,09,18,5.90
2011,10,24,09,19,5.90
2011,10,24,09,20,6.00
2011,10,24,09,21,6.10
2011,10,24,09,22,6.10
2011,10,24,09,23,6.20
2011,10,24,09,24,6.20
2011,10,24,09,25,6.30
2011,10,24,09,26,6.40
2011,10,24,09,27,6.50
2011,10,24,09,28,6.60
2011,10,24,09,29,6.70
2011,10,24,09,30,6.80
2011,10,24,09,31,6.90
2011,10,24,09,32,7.00
2011,10,24,09,33,7.10
2011,10,24,09,34,7.20
2011,10,24,09,35,7.30
2011,10,24,09,36,7.40
2011,10,24,09,37,7.60
2011,10,24,09,38,7.70
2011,10,24,09,39,7.80
2011,10,24,09,40,8.00
2011,10,24,09,41,8.10
2011,10,24,09,42,8.20
2011,10,24,09,43,8.30
2011,10,24,09,44,8.40
2011,10,24,09,45,8.50
2011,10,24,09,46,8.50
2011,10,24,09,47,8.60
2011,10,24,09,48,8.70
2011,10,24,09,49,8.80
2011,10,24,09,50,8.90
2011,10,24,09,51,8.90
2011,10,24,09,52,8.90
2011,10,24,09,53,9.00
2011,10,24,09,54,9.00
2011,10,24,09,55,9.10
2011,10,24,09,56,9.10
2011,10,24,09,57,9.10
2011,10,24,09,58,9.20
2011,10,24,09,59,9.20
2011,10,24,10,00,9.30
2011,10,24,10,01,9.30
2011,10,24,10,02,9.30
2011,10,24,10,03,9.30
2011,10,24,10,04,9.40
2011,10,24,10,05,9.40
2011,10,24,10,06,9.40
2011,10,24,10,07,9.50
2011,10,24,10,08,9.60
2011,10,24,10,09,9.60
2011,10,24,10,10,9.70
2011,10,24,10,11,9.70
2011,10,24,10,12,9.80
2011,10,24,10,13,9.80
2011,10,24,10,14,9.90
2011,10,24,10,15,10.00
2011,10,24,10,16,10.00
2011,10,24,10,17,10.00
2011,10,24,10,18,10.00
2011,10,24,10,19,10.00
2011,10,24,10,20,10.10
2011,10,24,10,21,10.10
2011,10,24,10,22,10.10
2011,10,24,10,23,10.10
2011,10,24,10,24,10.10
2011,10,24,10,25,10.10
2011,10,24,10,26,10.10
2011,10,24,10,27,10.20
2011,10,24,10,28,10.20
2011,10,24,10,29,10.20
2011,10,24,10,30,10.30
2011,10,24,10,31,10.30
2011,10,24,10,32,10.30
2011,10,24,10,33,10.40
2011,10,24,10,34,10.40
2011,10,24,10,35,10.40
2011,10,24,10,36,10.30
2011,10,24,10,37,10.40
2011,10,24,10,38,10.40
2011,10,24,10,39,10.40
2011,10,24,10,40,10.40
2011,10,24,10,41,10.40
2011,10,24,10,42,10.40
2011,10,24,10,43,10.50
2011,10,24,10,44,10.60
2011,10,24,10,45,10.60
2011,10,24,10,46,10.70
2011,10,24,10,47,10.70
2011,10,24,10,48,10.70
2011,10,24,10,49,10.70
2011,10,24,10,50,10.70
2011,10,24,10,51,10.70
2011,10,24,10,52,10.70
2011,10,24,10,53,10.70
2011,10,24,10,54,10.70
2011,10,24,10,55,10.70
2011,10,24,10,56,10.70
2011,10,24,10,57,10.70
2011,10,24,10,58,10.70
2011,10,24,10,59,10.70
2011,10,24,11,00,10.70
2011,10,24,11,01,10.70
2011,10,24,11,02,10.70
2011,10,24,11,03,10.70
2011,10,24,11,04,10.70
2011,10,24,11,05,10.70
2011,10,24,11,06,10.70
2011,10,24,11,07,10.80
2011,10,24,11,08,10.80
2011,10,24,11,09,10.80
2011,10,24,11,10,10.80
2011,10,24,11,11,10.90
2011,10,24,11,12,10.90
2011,10,24,11,13,10.90
2011,10,24,11,14,11.00
2011,10,24,11,15,11.10
2011,10,24,11,16,11.10
2011,10,24,11,17,11.10
2011,10,24,11,18,11.10
2011,10,24,11,19,11.10
2011,10,24,11,20,11.00
2011,10,24,11,21,11.00
2011,10,24,11,22,11.10
2011,10,24,11,23,11.10
2011,10,24,11,24,11.10
2011,10,24,11,25,11.10
2011,10,24,11,26,11.20
2011,10,24,11,27,11.20
2011,10,24,11,28,11.30
2011,10,24,11,29,11.30
2011,10,24,11,30,11.30
2011,10,24,11,31,11.40
2011,10,24,11,32,11.40
2011,10,24,11,33,11.50
2011,10,24,11,34,11.50
2011,10,24,11,35,11.60
2011,10,24,11,36,11.60
2011,10,24,11,37,11.60
2011,10,24,11,38,11.60
2011,10,24,11,39,11.60
2011,10,24,11,40,11.60
2011,10,24,11,41,11.60
2011,10,24,11,42,11.60
2011,10,24,11,43,11.60
2011,10,24,11,44,11.70
2011,10,24,11,45,11.70
2011,10,24,11,46,11.70
2011,10,24,11,47,11.70
2011,10,24,11,48,11.80
2011,10,24,11,49,11.80
2011,10,24,11,50,11.80
2011,10,24,11,51,11.80
2011,10,24,11,52,11.80
2011,10,24,11,53,11.80
2011,10,24,11,54,11.80
2011,10,24,11,55,11.80
2011,10,24,11,56,11.80
2011,10,24,11,57,11.80
2011,10,24,11,58,11.80
2011,10,24,11,59,11.80
2011,10,24,12,00,11.80
2011,10,24,12,01,11.90
2011,10,24,12,02,11.90
2011,10,24,12,03,12.00
2011,10,24,12,04,12.00
2011,10,24,12,05,12.10
2011,10,24,12,06,12.10
2011,10,24,12,07,12.20
2011,10,24,12,08,12.20
2011,10,24,12,09,12.20
2011,10,24,12,10,12.20
2011,10,24,12,11,12.20
2011,10,24,12,12,12.20
2011,10,24,12,13,12.10
2011,10,24,12,14,12.10
2011,10,24,12,15,12.10
2011,10,24,12,16,12.10
2011,10,24,12,17,12.10
2011,10,24,12,18,12.10
2011,10,24,12,19,12.10
2011,10,24,12,20,12.10
2011,10,24,12,21,12.10
2011,10,24,12,22,12.00
2011,10,24,12,23,12.00
2011,10,24,12,24,11.90
2011,10,24,12,25,12.00
2011,10,24,12,26,12.00
2011,10,24,12,27,12.00
2011,10,24,12,28,12.10
2011,10,24,12,29,12.10
2011,10,24,12,30,12.00
2011,10,24,12,31,12.00
2011,10,24,12,32,12.00
2011,10,24,12,33,11.90
2011,10,24,12,34,11.90
2011,10,24,12,35,11.90
2011,10,24,12,36,11.80
2011,10,24,12,37,11.80
2011,10,24,12,38,11.80
2011,10,24,12,39,11.80
2011,10,24,12,40,11.80
2011,10,24,12,41,11.80
2011,10,24,12,42,11.80
2011,10,24,12,43,11.80
2011,10,24,12,44,11.90
2011,10,24,12,45,11.90
2011,10,24,12,46,11.90
2011,10,24,12,47,11.90
2011,10,24,12,48,11.90
2011,10,24,12,49,11.90
2011,10,24,12,50,11.90
2011,10,24,12,51,11.90
2011,10,24,12,52,11.90
2011,10,24,12,53,11.90
2011,10,24,12,54,12.00
2011,10,24,12,55,12.00
2011,10,24,12,56,12.00
2011,10,24,12,57,12.10
2011,10,24,12,58,12.00
2011,10,24,12,59,11.90
2011,10,24,13,00,11.80
2011,10,24,13,01,11.70
2011,10,24,13,02,11.60
2011,10,24,13,03,11.60
2011,10,24,13,04,11.50
2011,10,24,13,05,11.40
2011,10,24,13,06,11.40
2011,10,24,13,07,11.40
2011,10,24,13,08,11.40
2011,10,24,13,09,11.50
2011,10,24,13,10,11.50
2011,10,24,13,11,11.50
2011,10,24,13,12,11.50
2011,10,24,13,13,11.50
2011,10,24,13,14,11.50
2011,10,24,13,15,11.40
2011,10,24,13,16,11.40
2011,10,24,13,17,11.30
2011,10,24,13,18,11.30
2011,10,24,13,19,11.30
2011,10,24,13,20,11.30
2011,10,24,13,21,11.30
2011,10,24,13,22,11.30
2011,10,24,13,23,11.40
2011,10,24,13,24,11.50
2011,10,24,13,25,11.60
2011,10,24,13,26,11.70
2011,10,24,13,27,11.70
2011,10,24,13,28,11.70
2011,10,24,13,29,11.70
2011,10,24,13,30,11.60
2011,10,24,13,31,11.50
2011,10,24,13,32,11.40
2011,10,24,13,33,11.40
2011,10,24,13,34,11.40
2011,10,24,13,35,11.50
2011,10,24,13,36,11.50
2011,10,24,13,37,11.70
2011,10,24,13,38,11.80
2011,10,24,13,39,11.80
2011,10,24,13,40,11.80
2011,10,24,13,41,11.90
2011,10,24,13,42,11.90
2011,10,24,13,43,11.90
2011,10,24,13,44,12.00
2011,10,24,13,45,12.10
2011,10,24,13,46,12.00
2011,10,24,13,47,12.00
2011,10,24,13,48,11.90
2011,10,24,13,49,11.90
2011,10,24,13,50,11.80
2011,10,24,13,51,11.80
2011,10,24,13,52,11.80
2011,10,24,13,53,11.90
2011,10,24,13,54,12.10
2011,10,24,13,55,12.20
2011,10,24,13,56,12.40
2011,10,24,13,57,12.60
2011,10,24,13,58,12.80
2011,10,24,13,59,12.80
2011,10,24,14,00,12.90
2011,10,24,14,01,13.00
2011,10,24,14,02,13.10
2011,10,24,14,03,13.10
2011,10,24,14,04,13.30
2011,10,24,14,05,13.30
2011,10,24,14,06,13.30
2011,10,24,14,07,13.40
2011,10,24,14,08,13.40
2011,10,24,14,09,13.40
2011,10,24,14,10,13.50
2011,10,24,14,11,13.50
2011,10,24,14,12,13.50
2011,10,24,14,13,13.60
2011,10,24,14,14,13.60
2011,10,24,14,15,13.60
2011,10,24,14,16,13.60
2011,10,24,14,17,13.60
2011,10,24,14,18,13.60
2011,10,24,14,19,13.60
2011,10,24,14,20,13.60
2011,10,24,14,21,13.50
2011,10,24,14,22,13.50
2011,10,24,14,23,13.50
2011,10,24,14,24,13.50
2011,10,24,14,25,13.50
2011,10,24,14,26,13.60
2011,10,24,14,27,13.50
2011,10,24,14,28,13.30
2011,10,24,14,29,13.20
2011,10,24,14,30,13.10
2011,10,24,14,31,12.80
2011,10,24,14,32,12.70
2011,10,24,14,33,12.60
2011,10,24,14,34,12.50
2011,10,24,14,35,12.50
2011,10,24,14,36,12.60
2011,10,24,14,37,12.60
2011,10,24,14,38,12.70
2011,10,24,14,39,12.80
2011,10,24,14,40,12.80
2011,10,24,14,41,12.80
2011,10,24,14,42,12.80
2011,10,24,14,43,12.70
2011,10,24,14,44,12.60
2011,10,24,14,45,12.50
2011,10,24,14,46,12.50
2011,10,24,14,47,12.40
2011,10,24,14,48,12.30
2011,10,24,14,49,12.30
2011,10,24,14,50,12.20
2011,10,24,14,51,12.20
2011,10,24,14,52,12.20
2011,10,24,14,53,12.20
2011,10,24,14,54,12.20
2011,10,24,14,55,12.10
2011,10,24,14,56,12.00
2011,10,24,14,57,12.00
2011,10,24,14,58,11.90
2011,10,24,14,59,11.90
2011,10,24,15,00,11.80
2011,10,24,15,01,11.80
2011,10,24,15,02,11.80
2011,10,24,15,03,11.80
2011,10,24,15,04,11.80
2011,10,24,15,05,11.80
2011,10,24,15,06,11.70
2011,10,24,15,07,11.70
2011,10,24,15,08,11.60
2011,10,24,15,09,11.60
2011,10,24,15,10,11.60
2011,10,24,15,11,11.60
2011,10,24,15,12,11.60
2011,10,24,15,13,11.60
2011,10,24,15,14,11.60
2011,10,24,15,15,11.60
2011,10,24,15,16,11.50
2011,10,24,15,17,11.50
2011,10,24,15,18,11.50
2011,10,24,15,19,11.50
2011,10,24,15,20,11.40
2011,10,24,15,21,11.40
2011,10,24,15,22,11.30
2011,10,24,15,23,11.30
2011,10,24,15,24,11.30
2011,10,24,15,25,11.30
2011,10,24,15,26,11.20
2011,10,24,15,27,11.20
2011,10,24,15,28,11.20
2011,10,24,15,29,11.20
2011,10,24,15,30,11.20
2011,10,24,15,31,11.30
2011,10,24,15,32,11.30
2011,10,24,15,33,11.30
2011,10,24,15,34,11.30
2011,10,24,15,35,11.30
2011,10,24,15,36,11.30
2011,10,24,15,37,11.30
2011,10,24,15,38,11.20
2011,10,24,15,39,11.20
2011,10,24,15,40,11.20
2011,10,24,15,41,11.10
2011,10,24,15,42,11.00
2011,10,24,15,43,10.90
2011,10,24,15,44,10.90
2011,10,24,15,45,10.80
2011,10,24,15,46,10.80
2011,10,24,15,47,10.90
2011,10,24,15,48,10.90
2011,10,24,15,49,11.00
2011,10,24,15,50,11.10
2011,10,24,15,51,11.10
2011,10,24,15,52,11.20
2011,10,24,15,53,11.20
2011,10,24,15,54,11.30
2011,10,24,15,55,11.30
2011,10,24,15,56,11.30
2011,10,24,15,57,11.30
2011,10,24,15,58,11.40
2011,10,24,15,59,11.40
2011,10,24,16,00,11.50
2011,10,24,16,01,11.50
2011,10,24,16,02,11.50
2011,10,24,16,03,11.50
2011,10,24,16,04,11.40
2011,10,24,16,05,11.40
2011,10,24,16,06,11.30
2011,10,24,16,07,11.30
2011,10,24,16,08,11.30
2011,10,24,16,09,11.30
2011,10,24,16,10,11.30
2011,10,24,16,11,11.30
2011,10,24,16,12,11.30
2011,10,24,16,13,11.40
2011,10,24,16,14,11.40
2011,10,24,16,15,11.40
2011,10,24,16,16,11.50
2011,10,24,16,17,11.50
2011,10,24,16,18,11.50
2011,10,24,16,19,11.60
2011,10,24,16,20,11.60
2011,10,24,16,21,11.60
2011,10,24,16,22,11.60
2011,10,24,16,23,11.60
2011,10,24,16,24,11.60
2011,10,24,16,25,11.60
2011,10,24,16,26,11.60
2011,10,24,16,27,11.50
2011,10,24,16,28,11.50
2011,10,24,16,29,11.50
2011,10,24,16,30,11.40
2011,10,24,16,31,11.40
2011,10,24,16,32,11.50
2011,10,24,16,33,11.50
2011,10,24,16,34,11.50
2011,10,24,16,35,11.60
2011,10,24,16,36,11.60
2011,10,24,16,37,11.60
2011,10,24,16,38,11.70
2011,10,24,16,39,11.70
2011,10,24,16,40,11.80
2011,10,24,16,41,11.80
2011,10,24,16,42,11.90
2011,10,24,16,43,11.90
2011,10,24,16,44,12.00
2011,10,24,16,45,12.10
2011,10,24,16,46,12.10
2011,10,24,16,47,12.10
2011,10,24,16,48,12.10
2011,10,24,16,49,12.10
2011,10,24,16,50,12.00
2011,10,24,16,51,11.90
2011,10,24,16,52,11.90
2011,10,24,16,53,11.80
2011,10,24,16,54,11.80
2011,10,24,16,55,11.80
2011,10,24,16,56,11.70
2011,10,24,16,57,11.70
2011,10,24,16,58,11.70
2011,10,24,16,59,11.70
2011,10,24,17,00,11.70
2011,10,24,17,01,11.70
2011,10,24,17,02,11.80
2011,10,24,17,03,11.80
2011,10,24,17,04,11.80
2011,10,24,17,05,11.80
2011,10,24,17,06,11.80
2011,10,24,17,07,11.80
2011,10,24,17,08,11.80
2011,10,24,17,09,11.80
2011,10,24,17,10,11.80
2011,10,24,17,11,11.70
2011,10,24,17,12,11.70
2011,10,24,17,13,11.70
2011,10,24,17,14,11.70
2011,10,24,17,15,11.60
2011,10,24,17,16,11.60
2011,10,24,17,17,11.60
2011,10,24,17,18,11.50
2011,10,24,17,19,11.50
2011,10,24,17,20,11.40
2011,10,24,17,21,11.40
2011,10,24,17,22,11.30
2011,10,24,17,23,11.30
2011,10,24,17,24,11.30
2011,10,24,17,25,11.30
2011,10,24,17,26,11.20
2011,10,24,17,27,11.20
2011,10,24,17,28,11.20
2011,10,24,17,29,11.20
2011,10,24,17,30,11.10
2011,10,24,17,31,11.10
2011,10,24,17,32,11.10
2011,10,24,17,33,11.00
2011,10,24,17,34,11.00
2011,10,24,17,35,10.90
2011,10,24,17,36,10.90
2011,10,24,17,37,10.90
2011,10,24,17,38,10.80
2011,10,24,17,39,10.80
2011,10,24,17,40,10.80
2011,10,24,17,41,10.70
2011,10,24,17,42,10.70
2011,10,24,17,43,10.70
2011,10,24,17,44,10.60
2011,10,24,17,45,10.60
2011,10,24,17,46,10.50
2011,10,24,17,47,10.40
2011,10,24,17,48,10.40
2011,10,24,17,49,10.40
2011,10,24,17,50,10.30